Location: Unnamed
(51.5169°N, 0.1311°W)
Time: 20:22:13
(UTC+01:00)

Tiros 1 - Pass Details

Date: 13 August 2024
Orbit: 623 x 655 km, 48.4° (Epoch: 16 September)

Event Time Altitude Azimuth Distance (km) Brightness Sun altitude
Rises 05:36:51 0° 223° (SW) 2,966 - -1.8°
Exits shadow 05:36:55 - 223° (SW) 2,938 9.9 -1.8°
Reaches altitude 10° 05:39:23 10° 213° (SSW) 2,059 9.2 -1.4°
Maximum altitude 05:43:32 31° 152° (SSE) 1,158 8.5 -0.8°
Drops below altitude 10° 05:47:43 10° 91° (E) 2,068 11.1 -0.2°
Sets 05:50:15 0° 82° (E) 2,980 12.5 0.1°
